Simultaneous Nadir Overpasses (SNOs) Predictions

Prediction of SNOs between METOP-A and TERRA Satellite Orbit:

Table of predicted SNOs for the next 14.0 days since TLE Epoch: 1/18/2020
Index Date (METOP-A) Time (METOP-A) Lat,Lon (METOP-A) SZA (METOP-A ) Date (TERRA) Time (TERRA) Lat,Lon (TERRA) SZA (TERRA ) Distance(km) Time Diff (sec)
1 01/18/2020 10:09:38 -81.44,-102.78 75.38 01/18/2020 10:10:35 -81.45,-102.63 75.33 2.64 57
2 01/18/2020 11:00:18 81.44, 64.83 104.65 01/18/2020 11:00:02 81.44, 64.84 104.64 0.45 16
3 01/21/2020 05:44:01 -81.44, -36.51 76.00 01/21/2020 05:44:55 -81.43, -36.47 75.98 0.94 54
4 01/21/2020 06:34:41 81.44, 131.09 104.02 01/21/2020 06:34:22 81.43, 130.96 103.99 2.47 19
5 01/24/2020 01:18:22 -81.44, 30.15 76.64 01/24/2020 01:19:13 -81.44, 30.01 76.63 2.34 51
6 01/24/2020 02:09:03 81.44,-162.67 103.35 01/24/2020 02:08:40 81.43,-162.58 103.33 1.92 23
7 01/26/2020 20:52:45 -81.44, 96.41 77.36 01/26/2020 20:53:32 -81.44, 96.44 77.33 0.56 47
8 01/26/2020 21:43:25 81.43, -96.03 102.66 01/26/2020 21:42:59 81.43, -96.18 102.63 2.76 26
9 01/29/2020 16:27:08 -81.44, 162.66 78.12 01/29/2020 16:27:51 -81.44, 162.82 78.08 2.71 43




NCC Satellite Simultaneous Nadir Overpasses (SNOs) Prediction Service
